Weather History for Saranac Lake, NY

Change the Weather History Date:

Saturday, March 2, 2013

  Actual Average Record
Temperature  
Mean Temperature 19 °F 19 °F  
Max Temperature 23 °F 32 °F 54 °F (1954)
Min Temperature 14 °F 6 °F -25 °F (1980)
Degree Days  
Heating Degree Days 46 46  
Month to date heating degree days 84 93  
Since 1 July heating degree days 6341 6798  
Cooling Degree Days 0 0  
Month to date cooling degree days 0 0  
Year to date cooling degree days 0 0  
Moisture  
Dew Point 15 °F    
Average Humidity 88    
Maximum Humidity 96    
Minimum Humidity 80    
Precipitation  
Precipitation 0.04 in 0.05 in 0.50 in (1976)
Month to date precipitation 0.07 0.10  
Year to date precipitation 1.96 3.84  
Sea Level Pressure  
Sea Level Pressure 29.75 in    
Wind  
Wind Speed 3 mph (West)    
Max Wind Speed 8 mph    
Max Gust Speed 13 mph    
Visibility 4 miles    
Events Snow    
T = Trace of Precipitation, MM = Missing Value Source: NWS Daily Summary

Daily Weather History Graph

Daily Weather History Graph

Search for Another Location

Airport:

Trip Planner

Search our weather history database for the weather conditions in past years. The results will help you decide how hot, cold, wet, or windy it might be!

Date:

Astronomy

Mar. 02, 2013 Rise Set
Actual Time 6:31 AM EST 5:46 PM EST
Civil Twilight 6:02 AM EST 6:15 PM EST
Nautical Twilight 5:29 AM EST 6:49 PM EST
Astronomical Twilight 4:55 AM EST 7:23 PM EST
Moon 11:37 PM EST (3/2) 8:44 AM EST (3/2)
Length of Visible Light 12h 12m
Length of Day
11h 14m
Waning Gibbous, 74% of the Moon is Illuminated
Mar 2
Waning Gibbous
Mar 4
Last Quarter
Mar 11
New
Mar 19
First Quarter
Mar 27
Full

Hourly Weather History & Observations

Time (EST) Temp. Windchill Dew Point Humidity Pressure Visibility Wind Dir Wind Speed Gust Speed Precip Events Conditions
12:51 AM 23.0 °F 18.4 °F 21.0 °F 92% 29.78 in 10.0 mi West 3.5 mph - N/A   Overcast
1:51 AM 21.9 °F 15.7 °F 19.9 °F 92% 29.78 in 10.0 mi Variable 4.6 mph - N/A   Overcast
2:35 AM 21.2 °F - 19.4 °F 93% 29.72 in 7.0 mi Calm Calm - N/A   Overcast
2:51 AM 21.9 °F 15.7 °F 19.9 °F 92% 29.78 in 6.0 mi West 4.6 mph - N/A   Overcast
3:22 AM 21.2 °F - 19.4 °F 93% 29.71 in 2.5 mi Calm Calm - 0.00 in Snow Light Snow
3:51 AM 21.0 °F 16.2 °F 19.0 °F 92% 29.78 in 1.8 mi Variable 3.5 mph - 0.00 in Snow Light Snow
4:04 AM 21.2 °F - 19.4 °F 93% 29.71 in 2.0 mi Calm Calm - 0.00 in Snow Light Snow
4:12 AM 21.2 °F - 19.4 °F 93% 29.71 in 1.8 mi Calm Calm - 0.01 in Snow Light Snow
4:27 AM 21.2 °F 13.6 °F 17.6 °F 86% 29.71 in 2.0 mi West 5.8 mph - 0.01 in Snow Light Snow
4:46 AM 19.4 °F - 17.6 °F 93% 29.72 in 3.0 mi Calm Calm - 0.01 in Snow Light Snow
4:51 AM 19.9 °F 13.4 °F 17.1 °F 89% 29.79 in 3.0 mi West 4.6 mph - 0.01 in Snow Light Snow
5:04 AM 19.4 °F 14.3 °F 17.6 °F 93% 29.72 in 2.5 mi WSW 3.5 mph - 0.00 in Snow Light Snow
5:17 AM 19.4 °F 14.3 °F 17.6 °F 93% 29.72 in 3.0 mi WNW 3.5 mph - 0.00 in Snow Light Snow
5:51 AM 19.0 °F - 16.0 °F 88% 29.79 in 2.5 mi Calm Calm - 0.00 in Snow Light Snow
6:03 AM 19.4 °F - 15.8 °F 86% 29.72 in 3.0 mi Calm Calm - 0.00 in Snow Light Snow
6:51 AM 19.0 °F 13.9 °F 16.0 °F 88% 29.79 in 7.0 mi Variable 3.5 mph - 0.00 in   Overcast
7:51 AM 18.0 °F 9.8 °F 16.0 °F 92% 29.80 in 10.0 mi Variable 5.8 mph - N/A   Overcast
8:51 AM 18.0 °F 12.7 °F 16.0 °F 92% 29.81 in 10.0 mi Variable 3.5 mph - N/A   Overcast
9:51 AM 18.0 °F 12.7 °F 16.0 °F 92% 29.80 in 10.0 mi Variable 3.5 mph - N/A   Overcast
10:51 AM 19.0 °F 12.3 °F 16.0 °F 88% 29.79 in 10.0 mi Variable 4.6 mph - N/A   Overcast
11:51 AM 19.0 °F 12.3 °F 16.0 °F 88% 29.79 in 10.0 mi Variable 4.6 mph - N/A   Overcast
12:51 PM 19.0 °F 10.0 °F 16.0 °F 88% 29.79 in 10.0 mi WSW 6.9 mph - N/A   Overcast
1:51 PM 19.0 °F 12.3 °F 15.1 °F 85% 29.78 in 10.0 mi Variable 4.6 mph - N/A   Overcast
2:51 PM 18.0 °F 9.8 °F 15.1 °F 88% 29.78 in 10.0 mi WNW 5.8 mph - N/A   Overcast
3:51 PM 18.0 °F 9.8 °F 14.0 °F 84% 29.78 in 2.5 mi West 5.8 mph - 0.00 in Snow Light Snow
4:20 PM 17.6 °F 10.7 °F 14.0 °F 86% 29.70 in 1.8 mi West 4.6 mph - 0.00 in Snow Light Snow
4:34 PM 17.6 °F 10.7 °F 14.0 °F 86% 29.70 in 1.5 mi West 4.6 mph - 0.00 in Snow Light Snow
4:51 PM 18.0 °F 11.1 °F 14.0 °F 84% 29.79 in 1.5 mi Variable 4.6 mph - 0.00 in Snow Light Snow
5:30 PM 17.6 °F - 14.0 °F 86% 29.71 in 1.0 mi Calm Calm - 0.00 in Snow Light Snow
5:51 PM 17.1 °F - 14.0 °F 88% 29.81 in 1.2 mi Calm Calm - 0.01 in Snow Light Snow
6:02 PM 17.6 °F 12.3 °F 14.0 °F 86% 29.73 in 2.0 mi Variable 3.5 mph - 0.00 in Snow Light Snow
6:26 PM 17.6 °F 10.7 °F 12.2 °F 79% 29.73 in 2.0 mi Variable 4.6 mph - 0.00 in Snow Light Snow
6:33 PM 17.6 °F 12.3 °F 12.2 °F 79% 29.73 in 1.5 mi Variable 3.5 mph - 0.00 in Snow Light Snow
6:51 PM 17.1 °F 11.7 °F 12.9 °F 84% 29.81 in 1.5 mi West 3.5 mph - 0.00 in Snow Light Snow
7:26 PM 17.6 °F 10.7 °F 12.2 °F 79% 29.73 in 2.0 mi West 4.6 mph - 0.00 in Snow Light Snow
7:43 PM 15.8 °F 10.2 °F 12.2 °F 86% 29.73 in 1.5 mi Variable 3.5 mph - 0.01 in Snow Light Snow
7:51 PM 16.0 °F 10.4 °F 12.0 °F 84% 29.82 in 1.8 mi Variable 3.5 mph - 0.01 in Snow Light Snow
7:58 PM 15.8 °F - 12.2 °F 86% 29.73 in 2.0 mi Calm Calm - 0.00 in Snow Light Snow
8:19 PM 15.8 °F - 12.2 °F 86% 29.73 in 1.5 mi Calm Calm - 0.00 in Snow Light Snow
8:32 PM 15.8 °F - 12.2 °F 86% 29.73 in 2.0 mi Calm Calm - 0.00 in Snow Light Snow
8:40 PM 15.8 °F - 12.2 °F 86% 29.73 in 1.5 mi Calm Calm - 0.00 in Snow Light Snow
8:51 PM 16.0 °F - 12.0 °F 84% 29.82 in 1.8 mi Calm Calm - 0.00 in Snow Light Snow
9:00 PM 15.8 °F 10.2 °F 12.2 °F 86% 29.73 in 2.0 mi West 3.5 mph - 0.00 in Snow Light Snow
9:18 PM 15.8 °F - 12.2 °F 86% 29.73 in 1.8 mi Calm Calm - 0.00 in Snow Light Snow
9:21 PM 15.8 °F - 12.2 °F 86% 29.72 in 2.0 mi Calm Calm - 0.00 in Snow Light Snow
9:51 PM 15.1 °F - 12.0 °F 88% 29.81 in 2.0 mi Calm Calm - 0.00 in Snow Light Snow
10:34 PM 15.8 °F - 12.2 °F 86% 29.71 in 4.0 mi Calm Calm - 0.01 in Snow Light Snow
10:48 PM 15.8 °F - 12.2 °F 86% 29.71 in 5.0 mi Calm Calm - 0.01 in Snow Light Snow
10:51 PM 15.1 °F - 12.0 °F 88% 29.79 in 5.0 mi Calm Calm - 0.01 in Snow Light Snow
11:04 PM 15.8 °F - 12.2 °F 86% 29.71 in 7.0 mi Calm Calm - 0.00 in Snow Light Snow
11:33 PM 15.8 °F - 12.2 °F 86% 29.70 in 2.0 mi Calm Calm - 0.00 in Snow Light Snow
11:51 PM 15.1 °F - 12.0 °F 88% 29.78 in 3.0 mi Calm Calm - 0.00 in Snow Light Snow